Grenada Lake Weather Center

Moon Phase Calendar



Grenada Lake Water Level
Online Cameras

 


      

Current Conditions in Grenada
2/27/2024 3:21:29 AM

65°F
Feels Like 65
Clouds
Humidity
78%
Pressure
29.74"
Wind
15.3 mph (SSW)
Dew Point
58°F
UV Index
0/10 (Low)
Visibility
6 mi

Hourly Forecast

Date & Time Tue, Feb 27
3:00 AM
Tue, Feb 27
4:00 AM
Tue, Feb 27
5:00 AM
Tue, Feb 27
6:00 AM
Tue, Feb 27
7:00 AM
Tue, Feb 27
8:00 AM
Tue, Feb 27
9:00 AM
Tue, Feb 27
10:00 AM
Tue, Feb 27
11:00 AM
Tue, Feb 27
12:00 PM
Tue, Feb 27
1:00 PM
Tue, Feb 27
2:00 PM
Tue, Feb 27
3:00 PM
Tue, Feb 27
4:00 PM
Tue, Feb 27
5:00 PM
Tue, Feb 27
6:00 PM
Tue, Feb 27
7:00 PM
Tue, Feb 27
8:00 PM
Tue, Feb 27
9:00 PM
Tue, Feb 27
10:00 PM
Tue, Feb 27
11:00 PM
Wed, Feb 28
12:00 AM
Wed, Feb 28
1:00 AM
Wed, Feb 28
2:00 AM
Wed, Feb 28
3:00 AM
Wed, Feb 28
4:00 AM
Wed, Feb 28
5:00 AM
Wed, Feb 28
6:00 AM
Wed, Feb 28
7:00 AM
Wed, Feb 28
8:00 AM
Wed, Feb 28
9:00 AM
Wed, Feb 28
10:00 AM
Wed, Feb 28
11:00 AM
Wed, Feb 28
12:00 PM
Wed, Feb 28
1:00 PM
Wed, Feb 28
2:00 PM
Wed, Feb 28
3:00 PM
Wed, Feb 28
4:00 PM
Wed, Feb 28
5:00 PM
Wed, Feb 28
6:00 PM
Wed, Feb 28
7:00 PM
Wed, Feb 28
8:00 PM
Wed, Feb 28
9:00 PM
Wed, Feb 28
10:00 PM
Wed, Feb 28
11:00 PM
Thu, Feb 29
12:00 AM
Thu, Feb 29
1:00 AM
Thu, Feb 29
2:00 AM
Condition
Clouds

Clouds

Clouds

Clouds

Clouds

Clouds

Clouds

Clouds

Clouds

Clouds

Clouds

Clouds

Clouds

Clouds

Clouds

Clouds

Clouds

Clouds

Clouds

Clouds

Clouds

Clouds

Clouds

Clouds

Clouds

Clouds

Rain

Rain

Rain

Clouds

Clouds

Clouds

Clouds

Clouds

Clouds

Clouds

Clouds

Clouds

Clouds

Clouds

Clouds

Clouds

Clouds

Clouds

Clouds

Clouds

Clouds

Clouds
Temperature 65°F65°F64°F64°F64°F65°F68°F71°F74°F76°F76°F77°F76°F76°F75°F74°F74°F73°F71°F70°F69°F68°F67°F67°F66°F67°F68°F68°F51°F50°F48°F49°F51°F53°F54°F54°F54°F53°F50°F47°F45°F43°F42°F41°F41°F41°F41°F40°F
Feels Like 65°F64°F64°F64°F63°F65°F68°F71°F74°F76°F77°F77°F76°F76°F75°F75°F74°F73°F71°F70°F69°F68°F67°F67°F67°F67°F68°F68°F50°F45°F43°F43°F48°F50°F51°F51°F50°F49°F47°F43°F41°F39°F38°F38°F38°F36°F37°F36°F
Cloudiness 96%96%96%95%93%95%96%97%98%98%100%100%100%100%100%100%100%100%89%92%93%94%100%96%95%96%97%97%99%99%99%99%99%99%99%99%98%98%99%97%99%96%97%98%98%99%100%100%
Visibility 6 mi6 mi6 mi6 mi6 mi6 mi6 mi6 mi6 mi6 mi6 mi6 mi6 mi6 mi6 mi6 mi6 mi6 mi6 mi6 mi6 mi6 mi6 mi6 mi6 mi6 mi6 mi6 mi6 mi6 mi6 mi6 mi6 mi6 mi6 mi6 mi6 mi6 mi6 mi6 mi6 mi6 mi6 mi6 mi6 mi6 mi6 mi6 mi
Precipitation 0%0%0%0%0%0%0%0%0%0%0%0%0%0%0%0%0%0%0%0%0%0%0%0%0%0%22%36%81%85%81%73%73%73%0%0%0%0%0%0%0%0%0%0%0%0%0%0%
Humidity 78%78%79%80%81%79%74%70%65%61%61%61%64%64%65%65%66%67%70%73%75%76%77%78%82%86%85%85%77%71%71%64%49%41%36%31%27%28%34%39%43%46%49%51%53%53%50%52%
Dew Point 58°F58°F58°F58°F58°F58°F59°F60°F61°F62°F62°F62°F63°F63°F62°F62°F62°F61°F61°F61°F60°F60°F60°F60°F61°F62°F63°F63°F44°F41°F39°F37°F33°F30°F28°F25°F21°F20°F23°F23°F24°F24°F24°F24°F25°F25°F24°F24°F
Pressure 29.74"29.74"29.74"29.74"29.77"29.8"29.8"29.8"29.77"29.77"29.74"29.71"29.71"29.68"29.68"29.68"29.71"29.71"29.74"29.71"29.71"29.71"29.71"29.71"29.74"29.74"29.8"29.8"29.94"30.03"30.09"30.15"30.18"30.24"30.24"30.27"30.27"30.3"30.3"30.36"30.36"30.39"30.39"30.45"30.45"30.42"30.45"30.45"
Wind Speed 15.3 mph15.4 mph14.6 mph15.3 mph14.9 mph14.4 mph16 mph16.7 mph17.3 mph17 mph16.1 mph15.7 mph14.7 mph15.1 mph15.5 mph16.1 mph16.1 mph15.9 mph16.3 mph15.9 mph16.4 mph17.2 mph16.2 mph15.7 mph15.4 mph16.3 mph15.6 mph13.9 mph16 mph13.5 mph13.7 mph15.1 mph15.7 mph15.3 mph14.6 mph13.9 mph13.6 mph11.7 mph9.2 mph7.1 mph6.6 mph7 mph7.5 mph5.6 mph4.9 mph6.3 mph5.8 mph6 mph
Wind
Direction
206°
SSW
206°
SSW
211°
SSW
210°
SSW
213°
SSW
214°
SW
212°
SSW
214°
SW
214°
SW
216°
SW
212°
SSW
214°
SW
213°
SSW
209°
SSW
208°
SSW
206°
SSW
207°
SSW
210°
SSW
205°
SSW
203°
SSW
202°
SSW
198°
SSW
205°
SSW
209°
SSW
220°
SW
214°
SW
232°
SW
238°
WSW
331°
NNW
329°
NNW
333°
NNW
334°
NNW
341°
NNW
340°
NNW
344°
NNW
354°
N

N
10°
N
18°
NNE
10°
N
14°
NNE
21°
NNE
29°
NNE
31°
NNE
38°
NE
43°
NE
59°
ENE
62°
ENE

Daily Forecast

Date High Low Precip. Humidity
Today
Feb 27

Clouds
77 °F
64 °F
0%
61%
Wednesday
Feb 28

Rain
68 °F
41 °F
85%
41%
Thursday
Feb 29

Clouds
53 °F
38 °F
0%
30%
Friday
Mar 1

Rain
59 °F
43 °F
100%
85%
Saturday
Mar 2

Clouds
69 °F
55 °F
0%
69%
Sunday
Mar 3

Rain
73 °F
58 °F
26%
64%
Monday
Mar 4

Rain
64 °F
62 °F
100%
96%
Tuesday
Mar 5

Rain
62 °F
44 °F
100%
35%
Wednesday
Mar 6

Clouds
58 °F
38 °F
2%
38%
Thursday
Mar 7

Rain
72 °F
50 °F
100%
66%
Friday
Mar 8

Rain
71 °F
52 °F
76%
44%
Saturday
Mar 9

Clouds
61 °F
43 °F
0%
43%
Sunday
Mar 10

Clouds
65 °F
47 °F
0%
48%
Monday
Mar 11

Clouds
75 °F
51 °F
0%
57%
Tuesday
Mar 12

Clouds
75 °F
58 °F
0%
60%
Wednesday
Mar 13

Clouds
74 °F
58 °F
0%
60%

Temperature 8-14 Day Outlook



Precipitation 8-14 Day Outlook






About Us
Contact Us
Site Map
Search Site
Advertise With Us
   
Grenada.USLakes.info
THE GRENADA LAKE WEBSITE

Copyright 2024, Lakes Online
Privacy    |    Legal